Elkins, WV

12:07 AM EST on November 17, 2019 (GMT -0500)
Elkins-Randolph County

Weather History for KEKN - September, 2019

Change the Weather History Date:

Sunday, September 8, 2019

  Actual Average Record
Temperature  
Mean Temperature 65 °F 65 °F  
Max Temperature 77 °F 76 °F 91 °F (1939)
Min Temperature 53 °F 54 °F 36 °F (1932)
Degree Days  
Heating Degree Days 0 2  
Month to date heating degree days 0 14  
Since 1 July heating degree days 7 44  
Cooling Degree Days 0 2  
Month to date cooling degree days 37 21  
Year to date cooling degree days 708 447  
Growing Degree Days 15 (Base 50)    
Moisture  
Dew Point 54 °F    
Average Humidity 82    
Maximum Humidity 94    
Minimum Humidity 47    
Precipitation  
Precipitation T in 0.12 in 1.23 in (1981)
Month to date precipitation T 0.98  
Year to date precipitation 37.71 33.79  
Snow  
Snow 0.00 in 0.00 in 0.00 in (2017)
Month to date snowfall 0.0 0.0  
Since 1 September snowfall 0.0 0.0  
Snow Depth 0.00 in    
Sea Level Pressure  
Sea Level Pressure 30.11 in    
Wind  
Wind Speed 1 mph ()    
Max Wind Speed 9 mph    
Max Gust Speed 12 mph    
Visibility 4.9 miles    
Events Fog , Rain    
T = Trace of Precipitation, MM = Missing Value Source: Averaged Metar Reports

Daily Weather History Graph

Daily Weather History Graph

Search for Another Location

Airport or City:

Astronomy

Sep. 08, 2019 Rise Set
Actual Time 6:54 AM EDT 7:39 PM EDT
Civil Twilight 6:27 AM EDT 8:06 PM EDT
Nautical Twilight 5:55 AM EDT 8:38 PM EDT
Astronomical Twilight 5:22 AM EDT 9:10 PM EDT
Moon 4:43 PM EDT (9/8) 1:35 AM EDT (9/8)
Length of Visible Light 13h 38m
Length of Day
12h 44m
Waxing Gibbous, 75% of the Moon is Illuminated
Sep 8
Waxing Gibbous
Sep 14
Full
Sep 21
Last Quarter
Sep 28
New
Oct 5
First Quarter

Hourly Weather History & Observations

Time (EDT) Temp. Dew Point Humidity Pressure Visibility Wind Dir Wind Speed Gust Speed Precip Events Conditions
12:51 AM 57.0 °F 54.0 °F 89% 30.08 in 5.0 mi Calm Calm - N/A   Partly Cloudy
1:51 AM 55.9 °F 53.1 °F 90% 30.08 in 4.0 mi Calm Calm - N/A   Scattered Clouds
2:41 AM 55.9 °F 53.1 °F 90% 30.08 in 1.2 mi Calm Calm - N/A   Mostly Cloudy
2:47 AM 55.4 °F 53.6 °F 94% 30.08 in 0.5 mi Calm Calm - N/A Fog Fog
2:51 AM 55.9 °F 53.1 °F 90% 30.07 in 0.2 mi Calm Calm - N/A Fog Fog
3:20 AM 55.0 °F 52.0 °F 89% 30.08 in 0.5 mi Calm Calm - N/A Fog Fog
3:47 AM 53.6 °F 51.8 °F 94% 30.07 in 1.8 mi Calm Calm - N/A   Scattered Clouds
3:51 AM 54.0 °F 51.1 °F 90% 30.06 in 1.2 mi Calm Calm - N/A   Mostly Cloudy
3:58 AM 53.6 °F 51.8 °F 94% 30.07 in 0.2 mi Calm Calm - N/A Fog Fog
4:17 AM 54.0 °F 51.1 °F 90% 30.07 in 0.5 mi Calm Calm - N/A Fog Fog
4:30 AM 55.0 °F 52.0 °F 89% 30.07 in 0.2 mi Calm Calm - N/A Fog Fog
4:51 AM 54.0 °F 51.1 °F 90% 30.07 in 0.5 mi Calm Calm - N/A Fog Fog
5:10 AM 55.0 °F 53.1 °F 93% 30.08 in 0.2 mi Calm Calm - N/A Fog Fog
5:51 AM 55.9 °F 53.1 °F 90% 30.08 in 0.8 mi Calm Calm - N/A   Mist
5:55 AM 55.9 °F 53.1 °F 90% 30.09 in 2.5 mi Calm Calm - N/A   Overcast
6:02 AM 55.9 °F 53.1 °F 90% 30.09 in 4.0 mi Calm Calm - N/A   Overcast
6:22 AM 55.0 °F 52.0 °F 89% 30.10 in 2.0 mi Calm Calm - N/A   Overcast
6:41 AM 55.0 °F 52.0 °F 89% 30.10 in 0.8 mi Calm Calm - N/A   Overcast
6:51 AM 55.0 °F 52.0 °F 89% 30.10 in 0.5 mi Calm Calm - N/A Fog Fog
7:02 AM 55.0 °F 52.0 °F 89% 30.11 in 0.2 mi Calm Calm - N/A Fog Fog
7:38 AM 55.9 °F 53.1 °F 90% 30.14 in 1.0 mi Calm Calm - N/A   Overcast
7:47 AM 55.4 °F 53.6 °F 94% 30.14 in 0.5 mi Calm Calm - N/A Fog Fog
7:51 AM 55.0 °F 53.1 °F 93% 30.14 in 0.5 mi Calm Calm - N/A Fog Fog
8:06 AM 55.9 °F 53.1 °F 90% 30.14 in 2.0 mi Calm Calm - N/A   Overcast
8:15 AM 57.0 °F 53.1 °F 87% 30.14 in 5.0 mi Calm Calm - N/A   Mostly Cloudy
8:28 AM 57.9 °F 54.0 °F 87% 30.14 in 7.0 mi Calm Calm - N/A   Scattered Clouds
8:51 AM 57.9 °F 55.0 °F 90% 30.16 in 7.0 mi WNW 3.5 mph - N/A   Mostly Cloudy
9:33 AM 62.1 °F 55.9 °F 80% 30.14 in 10.0 mi WSW 3.5 mph - N/A   Partly Cloudy
9:51 AM 63.0 °F 57.0 °F 81% 30.13 in 10.0 mi Variable 3.5 mph - N/A   Clear
10:51 AM 69.1 °F 57.0 °F 65% 30.13 in 10.0 mi Calm Calm - N/A   Scattered Clouds
11:51 AM 72.0 °F 55.9 °F 57% 30.12 in 10.0 mi Calm Calm - N/A   Scattered Clouds
12:51 PM 73.0 °F 57.0 °F 57% 30.13 in 10.0 mi NNW 9.2 mph - N/A   Scattered Clouds
1:51 PM 72.0 °F 57.0 °F 59% 30.13 in 10.0 mi NNW 5.8 mph - N/A   Mostly Cloudy
2:51 PM 73.0 °F 57.0 °F 57% 30.11 in 10.0 mi Variable 3.5 mph - N/A   Mostly Cloudy
3:51 PM 75.9 °F 55.9 °F 50% 30.11 in 10.0 mi Calm Calm - N/A   Partly Cloudy
4:51 PM 77.0 °F 55.9 °F 48% 30.11 in 10.0 mi NW 5.8 mph - N/A   Clear
5:51 PM 73.9 °F 57.0 °F 55% 30.12 in 10.0 mi Variable 4.6 mph - N/A   Overcast
6:51 PM 72.0 °F 57.0 °F 59% 30.13 in 10.0 mi NNW 3.5 mph - N/A   Scattered Clouds
7:51 PM 66.0 °F 57.9 °F 75% 30.15 in 10.0 mi Calm Calm - N/A   Clear
8:51 PM 64.0 °F 57.9 °F 80% 30.17 in 10.0 mi Calm Calm - N/A   Scattered Clouds
9:51 PM 64.0 °F 57.9 °F 80% 30.18 in 10.0 mi Calm Calm - N/A   Overcast
10:51 PM 63.0 °F 57.9 °F 84% 30.16 in 10.0 mi Calm Calm - 0.00 in Rain Light Rain
11:51 PM 63.0 °F 59.0 °F 87% 30.17 in 10.0 mi Calm Calm - 0.00 in   Overcast